CW0637 Weather Reports


time (UTC)temp
C
wind
direction
speed
KPH
gust
KPH
rain 1hr
cm
rain 24hr
cm
rain mn
cm
humidity
%
barometer
mb
20260906122705 23 16 4.8 9.7 0.00 1.09 0.00 93 1011.5
20260906121205 23 355 0.0 1.6 0.00 1.09 0.00 94 1011.3
20260906120705 23 5 0.0 4.8 0.00 1.09 0.00 94 1011.2
20260906120205 23 336 0.0 0.0 0.00 1.09 0.00 94 1011.2
20260906115706 23 31 0.0 0.0 0.00 1.09 0.00 94 1011.1
20260906115205 22 28 0.0 0.0 0.00 1.09 0.00 93 1011.1
20260906114706 22 12 0.0 0.0 0.00 1.09 0.00 93 1011.0
20260906114205 22 349 0.0 0.0 0.00 1.09 0.00 93 1010.9
20260906113705 22 22 0.0 0.0 0.00 1.09 0.00 93 1010.9
20260906113205 22 61 0.0 0.0 0.00 1.09 0.00 93 1010.9
20260906112705 22 41 0.0 0.0 0.00 1.09 0.00 93 1010.8
20260906112205 22 42 0.0 0.0 0.00 1.09 0.00 93 1010.6
20260906111205 22 54 0.0 0.0 0.00 1.09 0.00 93 1010.5
20260906110705 22 54 0.0 0.0 0.00 1.09 0.00 93 1010.5
20260906110206 22 54 0.0 0.0 0.00 1.09 0.00 93 1010.5
20260906105706 22 54 0.0 0.0 0.00 1.09 0.00 93 1010.4
20260906105205 22 54 0.0 0.0 0.00 1.09 0.00 93 1010.5
20260906104705 22 344 0.0 0.0 0.00 1.09 0.00 93 1010.5
20260906104205 22 344 0.0 0.0 0.00 1.09 0.00 93 1010.5
20260906103206 22 0 0.0 0.0 0.00 1.09 0.00 93 1010.5
20260906102705 22 30 0.0 0.0 0.00 1.09 0.00 93 1010.4
20260906101705 22 30 0.0 0.0 0.00 1.09 0.00 94 1010.3
20260906101205 22 30 0.0 0.0 0.00 1.09 0.00 94 1010.1
20260906100706 22 30 0.0 0.0 0.00 1.09 0.00 94 1010.0
20260906095705 22 30 0.0 0.0 0.00 1.09 0.00 94 1009.7
20260906095205 22 30 0.0 0.0 0.00 1.09 0.00 93 1009.6
20260906093705 22 30 0.0 0.0 0.00 1.09 0.00 92 1009.5
20260906093205 22 30 0.0 0.0 0.00 1.09 0.00 92 1009.6
20260906092705 22 30 0.0 0.0 0.00 1.09 0.00 93 1009.5
20260906092205 22 30 0.0 0.0 0.00 1.09 0.00 93 1009.4
20260906091705 22 30 0.0 0.0 0.00 1.09 0.00 92 1009.4
20260906091204 22 30 0.0 0.0 0.00 1.09 0.00 92 1009.4
20260906090705 22 30 0.0 0.0 0.00 1.09 0.00 92 1009.4
20260906090205 22 30 0.0 0.0 0.00 1.09 0.00 92 1009.4
20260906085205 23 30 0.0 0.0 0.00 1.09 0.00 92 1009.5
20260906084705 23 30 0.0 0.0 0.00 1.09 0.00 92 1009.4
20260906084205 23 302 0.0 0.0 0.00 1.09 0.00 92 1009.4
20260906083705 23 302 0.0 0.0 0.00 1.09 0.00 93 1009.4
20260906083205 23 302 0.0 0.0 0.00 1.09 0.00 93 1009.4
20260906082205 23 261 0.0 0.0 0.00 1.09 0.00 93 1009.5
20260906081705 23 272 0.0 0.0 0.00 1.09 0.00 93 1009.5
20260906081205 23 306 0.0 0.0 0.00 1.09 0.00 93 1009.4
20260906080705 23 327 0.0 0.0 0.00 1.09 0.00 93 1009.3
20260906080205 23 298 0.0 0.0 0.00 1.09 0.00 93 1009.4
20260906075705 23 293 0.0 0.0 0.00 1.09 0.00 93 1009.5
20260906074705 23 299 0.0 0.0 0.00 1.09 0.00 93 1009.5
20260906074205 23 296 0.0 0.0 0.00 1.09 0.00 93 1009.5
20260906073705 23 296 0.0 0.0 0.00 1.09 0.00 92 1009.7
20260906073205 23 296 0.0 0.0 0.00 1.09 0.00 93 1009.8
20260906072705 23 296 0.0 0.0 0.00 1.09 0.00 93 1009.8
20260906072205 23 296 0.0 0.0 0.00 1.09 0.00 92 1009.8
20260906071705 23 296 0.0 0.0 0.00 1.09 0.00 92 1010.0
20260906071205 23 296 0.0 0.0 0.00 1.09 0.00 92 1010.1
20260906070705 23 296 0.0 0.0 0.00 1.09 0.00 93 1010.1
20260906070205 23 296 0.0 0.0 0.00 1.09 0.00 93 1010.2
20260906065705 23 296 0.0 0.0 0.00 1.09 0.00 92 1010.3
20260906065205 23 296 0.0 0.0 0.00 1.09 0.00 92 1010.3
20260906064705 23 296 0.0 0.0 0.00 1.09 0.00 92 1010.2
20260906064205 23 296 0.0 0.0 0.00 1.09 0.00 92 1010.2
20260906063205 23 296 0.0 0.0 0.00 1.09 0.00 93 1010.2
20260906062705 23 296 0.0 0.0 0.00 1.09 0.00 93 1010.1
20260906062206 23 296 0.0 0.0 0.00 1.09 0.00 92 1010.2
20260906061705 23 296 0.0 0.0 0.00 1.09 0.00 92 1010.2
20260906061204 23 296 0.0 0.0 0.00 1.09 0.00 92 1010.2
20260906060705 23 296 0.0 0.0 0.00 1.09 0.00 91 1010.2
20260906060205 23 296 0.0 0.0 0.00 1.09 0.00 91 1010.2
20260906055705 23 296 0.0 0.0 0.00 1.09 0.00 92 1010.2
20260906055205 24 296 0.0 0.0 0.00 1.09 0.00 92 1010.4
20260906054204 24 296 0.0 0.0 0.00 1.09 0.00 92 1010.5
20260906053706 23 296 0.0 0.0 0.00 1.09 0.00 92 1010.6
20260906052705 23 296 0.0 0.0 0.00 1.09 0.00 92 1010.6
20260906051705 23 325 0.0 0.0 0.00 1.09 0.00 92 1010.4
20260906051205 23 325 0.0 0.0 0.00 1.09 0.00 92 1010.3
20260906050705 23 325 0.0 0.0 0.00 1.09 0.00 92 1010.1
20260906050205 23 325 0.0 0.0 0.00 1.09 0.00 92 1010.1
20260906045705 23 325 0.0 0.0 0.00 1.09 0.00 92 1010.1
20260906044705 23 313 0.0 0.0 0.00 1.09 0.00 92 1010.3
20260906044205 23 313 0.0 0.0 0.00 1.09 0.00 92 1010.4
20260906043205 24 313 0.0 0.0 0.00 1.09 0.00 92 1010.8
20260906042205 23 11 0.0 0.0 0.00 1.09 0.00 92 1011.1
20260906041705 23 49 0.0 0.0 0.00 1.09 0.00 92 1011.2
20260906040205 23 98 0.0 1.6 0.00 1.09 0.00 92 1011.2
20260906035206 23 115 3.2 8.0 0.00 1.09 1.09 92 1011.2
20260906034705 23 140 1.6 8.0 0.00 1.09 1.09 92 1011.2
20260906034206 23 155 3.2 8.0 0.00 1.09 1.09 92 1011.2
20260906033705 23 179 0.0 3.2 0.00 1.09 1.09 92 1011.2
20260906033205 23 148 0.0 0.0 0.00 1.09 1.09 92 1011.2
20260906032704 23 169 0.0 0.0 0.00 1.09 1.09 91 1011.3
20260906032205 23 134 0.0 0.0 0.00 1.09 1.09 91 1011.4
20260906031205 24 128 0.0 3.2 0.00 1.09 1.09 92 1011.4
20260906030705 24 117 1.6 8.0 0.00 1.09 1.09 92 1011.5
20260906030205 24 164 1.6 8.0 0.00 1.09 1.09 92 1011.4
20260906025705 23 48 0.0 0.0 0.00 1.09 1.09 92 1011.4
20260906025205 23 324 1.6 8.0 0.00 1.09 1.09 92 1011.3
20260906024204 23 94 0.0 0.0 0.00 1.09 1.09 91 1010.7
20260906023705 23 94 0.0 0.0 0.00 1.09 1.09 91 1010.8
20260906022704 24 94 0.0 0.0 0.00 1.09 1.09 91 1010.7
20260906022205 24 94 0.0 0.0 0.00 1.09 1.09 91 1010.7
20260906021705 24 94 0.0 0.0 0.00 1.09 1.09 91 1010.8
20260906021205 24 94 0.0 0.0 0.00 1.09 1.09 91 1010.6
20260906020705 24 94 0.0 0.0 0.00 1.09 1.09 91 1010.5
20260906020205 24 94 0.0 0.0 0.00 1.09 1.09 91 1010.6
20260906015705 24 333 0.0 0.0 0.00 1.09 1.09 91 1010.6
20260906015205 24 333 0.0 0.0 0.00 1.09 1.09 91 1010.6
20260906014705 24 333 0.0 0.0 0.00 1.09 1.09 91 1010.7
20260906014205 24 304 0.0 0.0 0.00 1.09 1.09 91 1010.5
20260906013704 24 313 1.6 1.6 0.00 1.09 1.09 91 1010.6
20260906013205 24 348 3.2 8.0 0.00 1.09 1.09 91 1010.8
20260906012704 24 342 0.0 1.6 0.00 1.09 1.09 91 1010.8
20260906012205 24 344 0.0 1.6 0.00 1.09 1.09 91 1010.8
20260906011206 24 86 0.0 0.0 0.03 1.09 1.09 90 1010.6
20260906010705 24 86 0.0 0.0 0.03 1.09 1.09 90 1010.4
20260906010205 24 86 0.0 0.0 0.03 1.09 1.09 90 1010.2
20260906005704 24 86 0.0 0.0 0.03 1.09 1.09 90 1010.2
20260906005204 24 86 0.0 0.0 0.03 1.09 1.09 90 1010.3
20260906004705 24 86 0.0 0.0 0.03 1.09 1.09 90 1010.1
20260906004204 24 111 0.0 0.0 0.03 1.09 1.09 90 1010.2
20260906003705 24 152 0.0 1.6 0.03 1.09 1.09 90 1010.4
20260906003204 24 137 1.6 8.0 0.05 1.09 1.09 90 1010.7
20260906002705 24 272 3.2 8.0 0.28 1.09 1.09 89 1010.5
20260906002205 24 236 3.2 8.0 0.91 1.09 1.09 89 1010.4
20260906001705 24 226 1.6 3.2 1.04 1.07 1.07 89 1010.5
20260906001205 24 290 3.2 8.0 1.07 1.07 1.07 89 1010.5
20260906000205 24 11 4.8 8.0 1.07 1.07 1.07 89 1010.4
20260905235704 24 354 1.6 3.2 1.07 1.07 1.07 88 1010.5
20260905235205 24 147 3.2 4.8 1.07 1.07 1.07 87 1010.2
20260905234705 24 242 4.8 8.0 1.07 1.07 1.07 87 1010.4
20260905234204 24 240 3.2 4.8 1.07 1.07 1.07 86 1010.6
20260905233705 24 258 1.6 8.0 1.07 1.07 1.07 86 1010.7
20260905233205 24 290 3.2 9.7 1.04 1.04 1.04 83 1010.2
20260905232705 25 81 6.4 14.5 0.81 0.81 0.81 79 1010.4
20260905232205 26 25 4.8 11.3 0.18 0.18 0.18 75 1011.2
20260905231704 27 79 4.8 9.7 0.03 0.03 0.03 69 1011.3
20260905231205 28 49 4.8 12.9 0.00 0.00 0.00 67 1011.1
20260905230705 28 353 8.0 24.1 0.00 0.00 0.00 65 1011.1
20260905225704 30 30 1.6 8.0 0.00 0.00 0.00 79 1010.5
20260905225205 30 158 4.8 11.3 0.00 0.00 0.00 79 1009.8
20260905224705 31 276 3.2 11.3 0.00 0.00 0.00 79 1009.8
20260905224205 31 223 3.2 11.3 0.00 0.00 0.00 78 1009.6
20260905223705 31 140 3.2 8.0 0.00 0.00 0.00 79 1009.4
20260905223205 31 224 3.2 12.9 0.00 0.00 0.00 78 1009.2
20260905222704 31 154 6.4 12.9 0.00 0.00 0.00 78 1009.2
20260905221705 31 149 6.4 11.3 0.00 0.00 0.00 77 1009.2
20260905221204 31 146 6.4 12.9 0.00 0.00 0.00 76 1009.3
20260905220205 32 128 3.2 14.5 0.00 0.00 0.00 75 1008.9
20260905215705 32 117 6.4 11.3 0.00 0.00 0.00 75 1008.5
20260905214704 32 133 6.4 12.9 0.00 0.00 0.00 74 1008.3
20260905213705 33 202 4.8 11.3 0.00 0.00 0.00 73 1009.0
20260905213204 33 234 8.0 11.3 0.00 0.00 0.00 72 1009.0
20260905212704 33 245 4.8 9.7 0.00 0.00 0.00 72 1009.0
20260905212205 33 228 1.6 4.8 0.00 0.00 0.00 72 1009.1
20260905211705 33 205 1.6 8.0 0.00 0.00 0.00 70 1009.1
20260905211205 34 162 4.8 11.3 0.00 0.00 0.00 69 1008.9
20260905210704 35 211 4.8 11.3 0.00 0.00 0.00 67 1008.7
20260905210204 35 214 6.4 11.3 0.00 0.00 0.00 66 1008.7
20260905205704 35 210 6.4 9.7 0.00 0.00 0.00 61 1008.7
20260905204704 35 259 4.8 14.5 0.00 0.00 0.00 62 1008.8
20260905204204 35 270 6.4 16.1 0.00 0.00 0.00 61 1008.7
20260905203705 36 131 6.4 12.9 0.00 0.00 0.00 61 1008.8
20260905203204 36 264 6.4 11.3 0.00 0.00 0.00 62 1008.9
20260905202205 36 263 4.8 16.1 0.00 0.00 0.00 62 1008.8
20260905201204 35 234 4.8 12.9 0.00 0.00 0.00 63 1008.8
20260905200705 35 250 8.0 12.9 0.00 0.00 0.00 61 1008.8
20260905200204 36 251 8.0 19.3 0.00 0.00 0.00 60 1008.8
20260905195704 36 239 3.2 9.7 0.00 0.00 0.00 61 1008.8
20260905195204 35 206 4.8 9.7 0.00 0.00 0.00 62 1008.8
20260905194704 35 197 3.2 11.3 0.00 0.00 0.00 62 1008.9
20260905194205 35 222 8.0 11.3 0.00 0.00 0.00 61 1009.1
20260905193705 35 262 6.4 11.3 0.00 0.00 0.00 64 1009.1
20260905193204 35 254 4.8 12.9 0.00 0.00 0.00 63 1009.2
20260905192705 35 268 3.2 12.9 0.00 0.00 0.00 63 1009.3
20260905192205 35 222 8.0 14.5 0.00 0.00 0.00 61 1009.5
20260905191705 35 235 4.8 11.3 0.00 0.00 0.00 64 1009.6
20260905191204 35 249 4.8 8.0 0.00 0.00 0.00 64 1009.7
20260905190704 35 246 4.8 12.9 0.00 0.00 0.00 64 1009.8
20260905190204 35 241 3.2 12.9 0.00 0.00 0.00 66 1009.9
20260905185704 35 252 6.4 9.7 0.00 0.00 0.00 63 1010.0
20260905185205 35 264 1.6 3.2 0.00 0.00 0.00 62 1010.1
20260905184705 35 327 4.8 12.9 0.00 0.00 0.00 64 1010.3
20260905184204 35 303 3.2 11.3 0.00 0.00 0.00 65 1010.4
20260905183705 34 111 1.6 3.2 0.00 0.00 0.00 65 1010.5
20260905183204 34 33 1.6 4.8 0.00 0.00 0.00 66 1010.5
20260905182704 35 75 3.2 8.0 0.00 0.00 0.00 64 1010.6
20260905182205 35 235 4.8 9.7 0.00 0.00 0.00 64 1010.7
20260905181704 35 288 3.2 11.3 0.00 0.00 0.00 65 1010.7
20260905181205 35 209 4.8 12.9 0.00 0.00 0.00 65 1010.7
20260905180705 35 316 3.2 11.3 0.00 0.00 0.00 67 1010.8
20260905180204 34 284 0.0 8.0 0.00 0.00 0.00 66 1010.9
20260905175704 34 258 4.8 9.7 0.00 0.00 0.00 65 1010.9
20260905175205 34 250 8.0 16.1 0.00 0.00 0.00 66 1010.9
20260905174704 34 260 1.6 14.5 0.00 0.00 0.00 68 1011.1
20260905174204 34 258 9.7 12.9 0.00 0.00 0.00 66 1011.2
20260905173704 35 252 3.2 19.3 0.00 0.00 0.00 65 1011.2
20260905173204 34 305 4.8 14.5 0.00 0.00 0.00 66 1011.2
20260905172704 33 330 3.2 9.7 0.00 0.00 0.00 68 1011.2
20260905172204 33 245 8.0 11.3 0.00 0.00 0.00 67 1011.3
20260905171204 34 289 4.8 9.7 0.00 0.00 0.00 68 1011.3
20260905170705 33 219 3.2 12.9 0.00 0.00 0.00 69 1011.3
20260905170204 33 294 3.2 11.3 0.00 0.00 0.00 69 1011.5
20260905165205 33 256 8.0 16.1 0.00 0.00 0.00 67 1011.7
20260905164705 33 301 4.8 11.3 0.00 0.00 0.00 67 1011.8
20260905164205 33 292 4.8 14.5 0.00 0.00 0.00 70 1011.8
20260905163204 33 290 9.7 12.9 0.00 0.00 0.00 69 1012.0
20260905162705 32 249 1.6 11.3 0.00 0.00 0.00 73 1012.1
20260905162205 32 281 1.6 9.7 0.00 0.00 0.00 73 1012.1
20260905161705 32 266 9.7 14.5 0.00 0.00 0.00 72 1012.2
20260905160704 32 243 6.4 11.3 0.00 0.00 0.00 72 1012.3
20260905160204 32 293 8.0 14.5 0.00 0.00 0.00 73 1012.4
20260905155705 32 265 6.4 12.9 0.00 0.00 0.00 72 1012.5
20260905155204 32 305 6.4 16.1 0.00 0.00 0.00 74 1012.6
20260905154204 31 303 6.4 11.3 0.00 0.00 0.00 75 1012.6
20260905153704 31 260 6.4 16.1 0.00 0.00 0.00 75 1012.6
20260905153204 31 257 8.0 14.5 0.00 0.00 0.00 76 1012.7
20260905152704 31 228 8.0 12.9 0.00 0.00 0.00 75 1012.8
20260905152205 31 281 8.0 12.9 0.00 0.00 0.00 76 1012.9
20260905151704 31 251 9.7 14.5 0.00 0.00 0.00 75 1012.9
20260905151204 31 245 3.2 11.3 0.00 0.00 0.00 76 1013.0
20260905150705 31 303 3.2 9.7 0.00 0.00 0.00 77 1012.9
20260905150204 30 268 4.8 11.3 0.00 0.00 0.00 77 1013.0
20260905145205 31 265 4.8 12.9 0.00 0.00 0.00 77 1013.1
20260905144204 30 292 8.0 19.3 0.00 0.00 0.00 78 1013.1
20260905143705 30 281 9.7 14.5 0.00 0.00 0.00 78 1013.2
20260905143204 30 273 8.0 14.5 0.00 0.00 0.00 78 1013.2
20260905142704 30 261 6.4 12.9 0.00 0.00 0.00 79 1013.4
20260905142204 30 263 8.0 14.5 0.00 0.00 0.00 79 1013.5
20260905141704 30 277 6.4 11.3 0.00 0.00 0.00 80 1013.5
20260905140704 29 277 6.4 19.3 0.00 0.00 0.00 81 1013.5
20260905140205 29 274 8.0 14.5 0.00 0.00 0.00 80 1013.5
20260905135704 29 266 4.8 11.3 0.00 0.00 0.00 82 1013.5
20260905134705 28 291 8.0 14.5 0.00 0.00 0.00 82 1013.5
20260905134204 28 294 4.8 16.1 0.00 0.00 0.00 82 1013.5
20260905133704 28 299 8.0 16.1 0.00 0.00 0.00 84 1013.4
20260905133204 28 287 8.0 19.3 0.00 0.00 0.00 83 1013.4
20260905132705 28 276 9.7 16.1 0.00 0.00 0.00 83 1013.3
20260905132205 28 293 6.4 12.9 0.00 0.00 0.00 84 1013.3
20260905131204 27 280 4.8 14.5 0.00 0.00 0.00 86 1013.4
20260905130705 27 300 4.8 14.5 0.00 0.00 0.00 87 1013.4
20260905130204 27 268 8.0 14.5 0.00 0.00 0.00 87 1013.4
20260905125704 27 269 6.4 19.3 0.00 0.00 0.00 88 1013.5
20260905125204 27 252 8.0 12.9 0.00 0.00 0.00 88 1013.5
20260905124704 26 250 8.0 16.1 0.00 0.00 0.00 88 1013.5
20260905124205 26 243 8.0 12.9 0.00 0.00 0.00 88 1013.5
20260905123704 26 289 6.4 12.9 0.00 0.00 0.00 89 1013.5